STARLINK-3069, 49176

Orbit data source: Space-Track

STARLINK-3069, 49176 is a payload satellite owned by SpaceX/Seattle (US) in LEO that was launched on Tue, 14 Sep 2021 UTC via an FALCON 9 launch vehicle from the Air Force Western Test Range (AFWTR). Payload-class satellites include a variety of spacecraft equipped with specific instruments for various scientific and technological missions. These include communications satellites like Starlink; space stations such as the ISS; scientific satellites like the Hubble; Earth observation satellites from companies like Planet Labs, Umbra, and HawkEye 360; GPS; miniature CubeSats for education and research; and military/defense satellites.

Loading next visibility...
Identifier
49176, 2021-082AY
Orbit
LEO
Country
Flag of USUS
Related business
Manufacturer
SpaceX/Seattle
Mission
Operational Commercial Communications
Bus & Motor
STARLINK, Unknown motor
Mass
297 kg wet, ~275 kg dry
Launch date (UTC)
2021-09-14 (5 years ago)
Launch vehicle
FALCON 9
Launch site
Air Force Western Test Range (AFWTR)
Object type
Payload
Rocket body
Debris
Shape & HBR
Box + 1 Pan, 10.1 m
Radar Cross Section
13.562 m², Large (>1 m²)

Expand to show TLE details & history
Last TLE update: 19 hours ago

TLE from 19 hours ago
0 STARLINK-3069
1 49176U 21082AY  26125.38436134  .00000388  00000-0  40338-4 0  9999
2 49176  69.9987 111.5053 0003267 269.2840  90.7945 14.98333038255459
Epoch: 2026-05-05T09:13Z
TLE epoch observation values (Epoch: 2026-05-05T09:13:28.819Z)
Latitude
-0.00002°
Longitude
109.87524°
Altitude
574.503 km
Speed
7.574 km/s
True Right ascension
07h 26m 01s
True Declination
0° 00' 00"
Sunlit
Object was in daylight at epoch
Visualization orbit readout
Latitude
Unknown
Longitude
Unknown
Altitude
Unknown
Speed
Unknown
Apparent Right ascension
Unknown
Apparent Declination
Unknown
Sunlit
N/A
Visualization observer readout
Local Sidereal Time
12:14:34
Azimuth
Unknown
Elevation
Unknown
Doppler factor
Unknown
Orbital elements
Apogee altitude
572.265 km
Perigee altitude
567.725 km
Semi-major axis
6,948.132 km
Eccentricity
0.00033
Inclination
69.9987°
RAAN
111.5053°
Arg. of periapsis
269.284°
True anomaly
90.83193°
Mean anomaly
90.7945°
Eccentric anomaly
90.81322°
Mean motion
3.7475 °/min
Orbital period
96.06 mins
BSTAR
0.000040338
Loading maneuver chart data...
Computing Atmospheric mass density...
Loading historical data...
Loading historical data...
Loading historical data...
Loading historical data...
Loading historical data...
Loading historical data...
Loading historical data...

Documentation

Showing up to 5 results
|